This is the latest recevied weather packets stored in our database for station/object KD4EG. If no packets are shown the sender has not sent any weather packets the latest 10 day(s).
| Time | Temp. | Humidity | Pressure | Rain* | Wind** | Luminosity | Snow |
|---|---|---|---|---|---|---|---|
| 1788440657 | 26.11° C | 80% | 1022 hPa | 0 mm | - | 232 W/m² | - |
| 1788440355 | 26.11° C | 81% | 1021.8 hPa | 0 mm | - | 222 W/m² | - |
| 1788440050 | 25.56° C | 82% | 1021.7 hPa | 0 mm | - | 216 W/m² | - |
| 1788439749 | 25.56° C | 82% | 1021.9 hPa | 0 mm | - | 203 W/m² | - |
| 1788439473 | 25° C | 84% | 1022 hPa | 0 mm | - | 187 W/m² | - |
| 1788439144 | 25° C | 84% | 1022.2 hPa | 0 mm | - | 52 W/m² | - |
| 1788438838 | 24.44° C | 85% | 1022.2 hPa | 0 mm | - | 163 W/m² | - |
| 1788438537 | 24.44° C | 85% | 1022.2 hPa | 0 mm | - | 53 W/m² | - |
| 1788438232 | 24.44° C | 86% | 1021.9 hPa | 0 mm | - | 53 W/m² | - |
| 1788437945 | 23.89° C | 87% | 1021.8 hPa | 0 mm | - | 117 W/m² | - |
| 1788437626 | 23.89° C | 88% | 1022 hPa | 0 mm | - | 78 W/m² | - |
| 1788437322 | 23.89° C | 88% | 1021.9 hPa | 0 mm | - | 45 W/m² | - |
| 1788437021 | 23.33° C | 89% | 1021.9 hPa | 0 mm | - | 41 W/m² | - |
| 1788436719 | 23.33° C | 89% | 1021.8 hPa | 0 mm | - | 38 W/m² | - |
| 1788436414 | 23.33° C | 89% | 1021.7 hPa | 0 mm | - | 36 W/m² | - |
| 1788436114 | 23.33° C | 90% | 1021.8 hPa | 0 mm | - | 34 W/m² | - |
| 1788435810 | 23.33° C | 90% | 1021.7 hPa | 0 mm | - | 30 W/m² | - |
| 1788435505 | 23.33° C | 89% | 1021.7 hPa | 0 mm | - | 26 W/m² | - |
| 1788435201 | 23.33° C | 89% | 1021.7 hPa | 0 mm | - | 22 W/m² | - |
| 1788434897 | 23.33° C | 89% | 1021.8 hPa | 0 mm | - | 19 W/m² | - |
| 1788434593 | 23.33° C | 89% | 1021.6 hPa | 0 mm | - | 17 W/m² | - |
| 1788434291 | 23.33° C | 89% | 1021.3 hPa | 0 mm | - | 13 W/m² | - |
| 1788433986 | 23.33° C | 89% | 1021.4 hPa | 0 mm | - | 12 W/m² | - |
| 1788433682 | 23.33° C | 89% | 1021.3 hPa | 0 mm | - | 9 W/m² | - |
| 1788433378 | 23.33° C | 89% | 1021.3 hPa | 0 mm | - | 6 W/m² | - |
* Rain latest hour (hover to see other rain measurements)
** Current wind speed in m/s (hover to see current wind gust speed)